EHI
3 1 0 0 0 0 0 0 0 0 0 0 0 0 0 0 0 0 0 0 0 0 0 1 2 2 1 0 0 0 0 0 0 0 1 1 1 0 0 0 0 0 0 0 0 0 0 1 2
2 1 0 0 0 0 0 0 0 0 0 0 0 0 0 0 0 0 0 0 0 0 0 1 2 1 0 0 0 0 0 0 0 0 0 0 0 0 0 0 0 0 0 0 0 0 0 1 2
1 1 0 0 0 0 0 0 0 0 0 0 0 0 0 0 0 0 0 0 0 0 0 1 1 1 0 0 0 0 0 0 0 0 0 0 0 0 0 0 0 0 0 0 0 1 1 0 1
0 0 0 0 0 0 0 0 0 0 0 0 0 0 0 0 0 0 0 0 0 0 0 0 0 0 0 0 0 0 0 0 0 0 0 0 0 0 0 0 0 0 0 0 0 1 1 0 0
0 0 0 0 0 0 0 0 0 0 0 0 0 0 0 0 0 0 0 0 0 0 0 0 0 0 0 0 0 0 0 0 0 0 0 0 0 0 0 0 0 0 0 0 0 1 1 0 0
0 0 0 0 0 0 0 0 0 0 0 0 0 0 0 0 0 0 0 0 0 0 0 0 0 0 0 0 0 0 0 0 1 0 0 0 0 0 0 0 0 0 0 0 0 0 0 0 0
0 0 0 0 0 0 0 0 0 0 0 0 0 0 0 0 0 0 0 0 0 0 0 0 0 0 0 0 0 0 0 0 0 0 0 0 0 0 0 0 0 0 0 0 0 0 0 0 0
0 0 0 0 0 0 0 0 0 0 0 0 0 0 0 0 0 0 0 0 0 0 0 0 0 0 0 0 0 0 0 0 0 0 0 0 0 0 0 0 0 1 1 0 0 0 0 0 0
0 0 0 0 0 0 0 0 0 0 0 0 0 0 0 1 1 0 0 0 0 0 0 0 0 0 0 0 0 0 0 0 0 0 0 0 0 0 0 0 0 1 1 0 0 0 0 0 0
0 0 0 0 0 0 0 0 0 0 0 0 0 0 1 2 2 1 0 0 0 0 0 0 0 0 0 0 0 0 0 0 0 0 0 0 0 0 0 0 0 1 1 0 0 0 0 0 0
0 0 0 0 0 0 0 0 0 0 0 0 0 0 1 3 3 1 0 0 0 0 0 0 0 0 0 0 0 0 0 0 0 0 0 0 0 0 0 0 0 0 0 0 0 0 0 0 0
0 0 0 0 0 0 0 0 0 0 0 0 0 1 2 3 3 2 1 0 0 0 0 0 0 0 0 0 0 0 0 0 0 0 0 0 0 0 0 0 0 0 0 0 0 0 0 0 0
0 0 0 0 0 0 0 0 0 0 0 0 0 1 2 3 3 2 1 0 0 0 0 0 0 0 0 0 0 0 0 0 0 0 0 0 0 0 0 0 0 0 0 0 0 0 0 0 0
0 0 0 0 0 0 0 0 0 0 0 0 0 0 1 2 3 2 1 0 0 0 0 0 0 0 0 0 0 0 0 0 0 0 0 0 0 0 0 0 0 0 0 0 0 0 0 0 0
0 0 0 0 0 0 0 0 0 0 0 0 0 0 0 1 2 1 0 0 0 0 0 1 1 1 0 0 0 0 0 0 0 0 0 0 0 0 0 0 0 0 0 0 0 0 0 0 0
0 0 0 0 0 0 0 0 0 0 0 0 0 0 0 0 0 0 0 0 0 0 1 2 2 2 1 0 0 0 0 0 0 0 0 0 0 0 0 0 0 0 0 0 0 0 0 0 0
0 0 0 0 0 0 0 0 0 0 0 0 0 0 0 0 0 0 0 0 0 0 1 2 3 3 2 1 0 0 0 0 0 0 0 0 0 0 0 0 0 0 0 0 0 0 0 0 0
0 0 0 0 0 0 0 0 0 0 0 0 0 0 0 0 0 0 0 0 0 0 0 2 3 3 3 2 1 0 0 0 0 0 0 0 0 0 0 0 0 0 0 0 0 0 0 0 0
0 0 0 0 0 0 0 0 0 0 0 0 0 0 0 0 0 0 0 0 0 0 1 2 3 3 3 2 1 0 0 0 0 0 0 0 0 0 0 0 0 0 0 0 0 0 0 0 0
0 0 0 0 0 0 0 0 0 0 0 0 0 0 0 0 0 0 0 0 0 0 1 2 3 3 3 2 1 0 0 0 0 0 0 0 0 0 0 0 0 0 0 0 0 0 0 0 0
0 0 0 0 0 0 0 0 0 0 0 0 0 0 0 0 1 0 0 0 0 0 0 1 1 2 3 2 1 0 0 0 0 0 0 0 0 0 0 0 0 0 0 0 0 0 0 0 0
0 0 0 0 0 0 0 0 0 0 0 0 0 0 0 0 0 0 0 0 0 1 1 0 0 1 2 1 0 0 0 0 0 0 0 0 0 0 0 0 0 0 0 0 0 0 0 0 0
0 0 0 0 0 0 0 0 0 0 0 0 0 0 0 0 0 0 0 0 1 2 2 1 0 1 2 1 0 0 0 0 0 0 0 0 0 0 0 0 0 0 0 0 0 0 0 0 0
0 0 0 0 0 0 0 0 0 0 0 0 0 0 0 0 0 0 0 1 3 4 4 2 1 3 4 2 1 0 0 0 0 0 0 0 0 0 0 0 0 0 0 0 0 0 0 0 0
0 0 0 0 0 0 0 0 0 0 0 0 0 0 0 0 0 0 0 1 4 5 4 2 2 4 5 3 1 0 0 0 0 0 0 0 0 0 0 0 0 0 0 0 0 0 0 0 0
0 0 0 0 0 0 0 0 0 0 0 0 0 0 0 0 0 0 0 1 2 3 3 2 2 3 5 4 2 1 0 0 0 0 0 0 0 0 0 0 0 0 0 0 0 0 0 0 0
0 0 0 0 0 0 0 0 0 0 0 0 0 0 1 2 1 0 0 0 1 1 1 1 1 3 4 3 3 2 0 0 0 0 0 0 0 0 0 0 0 0 0 0 0 0 0 0 0
0 0 0 0 0 0 0 0 0 0 0 0 0 1 2 3 2 1 0 0 0 0 0 1 1 3 3 3 3 1 1 0 0 0 0 0 0 0 0 0 0 0 0 0 0 0 0 0 0
0 0 0 0 0 0 0 0 0 0 0 0 0 1 2 3 2 1 0 0 0 0 0 0 1 2 3 3 2 1 1 0 0 0 0 0 0 0 0 0 0 0 0 0 0 0 0 0 0
0 0 0 0 0 0 0 0 0 0 0 0 0 1 2 3 1 0 0 0 0 0 0 0 1 2 3 3 1 1 1 0 0 0 0 0 0 0 0 0 0 0 0 0 0 0 0 0 0
Wind_Speed
4 3 2 3 3 2 5 5 4 4 4 5 5 5 5 7 6 6 4 4 4 4 5 5 7 8 8 8 8 9 9 10 10 10 9 9 10 10 10 10 10 10 10 10 11 10 10 10 11
1 1 3 2 1 4 6 4 5 6 5 4 4 4 5 6 6 6 4 4 4 5 5 7 8 8 8 8 8 9 9 9 9 9 9 9 9 10 10 10 10 10 10 10 11 11 10 11 11
1 2 2 1 2 4 6 5 6 6 4 2 3 4 5 5 5 4 5 4 4 5 6 8 7 8 8 8 9 9 9 9 9 9 9 9 9 10 10 10 10 10 10 11 11 11 11 11 11
2 2 1 2 8 6 5 5 5 5 4 3 3 5 5 5 3 5 5 4 5 5 6 8 7 8 8 8 8 8 9 8 8 8 8 9 9 9 9 10 10 11 11 11 11 11 11 11 11
1 1 3 5 7 6 4 4 3 3 3 3 3 6 7 5 5 5 5 4 5 5 6 7 7 7 8 8 8 8 8 8 9 9 8 9 9 9 10 10 11 11 11 11 12 12 11 11 11
1 1 2 5 6 5 4 3 3 3 5 4 4 5 6 5 5 5 4 4 5 5 5 6 8 7 8 8 8 8 8 8 8 9 8 8 9 10 10 10 11 11 12 12 12 12 11 12 12
1 1 3 6 6 5 4 3 2 3 4 4 3 4 6 6 5 4 4 4 5 5 5 5 5 6 7 8 8 8 8 9 9 9 9 9 9 9 10 10 10 11 11 12 12 12 12 12 12
1 2 5 5 5 5 4 3 3 2 4 4 1 3 5 6 5 5 4 4 4 4 4 4 5 5 5 6 8 8 8 8 9 9 8 7 8 9 9 10 11 10 11 12 12 12 12 12 12
2 2 4 4 3 4 4 4 4 2 5 4 2 4 5 8 7 6 5 4 4 3 3 4 4 4 4 5 6 5 6 6 5 7 7 4 5 6 7 11 11 10 11 11 11 11 11 11 11
1 2 4 3 2 4 3 2 3 4 4 4 5 5 6 7 7 5 4 4 3 3 3 3 3 4 4 3 3 3 4 4 4 5 5 4 5 5 7 10 10 11 11 11 10 9 7 4 6
2 3 4 3 3 3 3 2 2 3 2 2 5 7 8 7 6 4 3 3 2 2 3 2 2 3 3 3 3 2 2 3 4 5 5 4 4 4 4 4 5 6 6 6 6 5 5 5 5
3 3 2 3 3 2 2 2 2 1 1 3 4 7 8 7 5 4 3 2 2 2 2 2 2 2 3 3 3 2 2 2 3 3 5 3 3 3 4 3 4 4 3 4 4 4 6 6 6
4 4 3 3 3 2 2 2 1 1 1 4 6 7 6 6 5 4 3 2 2 2 2 2 2 2 3 3 2 2 3 3 4 3 3 4 3 4 4 4 4 4 4 4 4 5 6 6 6
3 3 2 2 3 2 3 2 2 2 4 6 6 6 6 5 5 4 3 3 3 2 2 2 2 3 3 3 2 3 3 3 3 3 3 4 3 3 3 4 4 4 4 4 4 5 5 5 5
4 3 3 3 2 2 3 2 2 2 4 6 6 6 5 5 5 4 3 3 3 3 3 3 2 2 3 3 3 2 2 3 3 3 3 3 3 3 3 3 4 4 4 4 4 5 4 5 5
4 4 2 3 2 2 4 1 3 3 5 5 5 5 6 5 5 4 3 3 3 3 3 4 2 3 3 3 3 2 3 3 2 2 2 2 2 3 3 3 3 3 3 3 3 3 4 4 4
4 2 1 2 2 2 4 2 2 3 5 5 5 5 6 6 6 5 4 3 3 3 4 4 3 3 4 3 3 2 3 3 2 2 2 2 2 3 3 3 3 3 3 3 3 3 3 4 4
3 2 2 1 2 4 4 4 2 3 5 5 5 5 5 6 6 6 5 4 4 4 4 4 4 3 4 3 2 2 2 2 2 2 2 2 2 3 3 3 3 3 3 3 3 4 3 3 3
2 3 2 1 0 4 5 5 4 3 4 5 5 6 6 6 6 6 5 5 5 5 5 5 5 4 3 2 2 2 2 2 2 2 3 2 2 2 2 2 3 2 3 3 3 4 4 3 2
5 5 3 1 1 4 4 6 4 3 5 5 6 6 6 6 7 7 6 6 5 5 5 5 5 4 4 2 2 2 2 2 2 2 2 2 2 2 2 3 3 3 3 3 3 3 2 2 1
6 6 4 4 3 5 6 5 5 4 4 4 5 5 6 6 7 7 7 7 6 5 5 5 5 5 4 4 3 2 2 2 2 2 2 1 1 2 2 2 3 2 2 3 2 2 2 1 1
5 4 5 6 7 3 4 4 2 4 4 4 5 5 6 6 6 6 7 7 7 6 5 5 5 5 5 5 4 4 3 2 2 2 2 2 2 2 2 2 2 2 2 2 2 2 1 1 1
3 2 5 6 7 7 5 6 1 3 3 3 3 4 5 6 6 6 6 6 5 5 5 5 5 5 5 4 4 4 3 2 2 2 3 2 2 2 2 2 2 2 2 2 2 1 1 1 1
2 4 5 6 6 7 4 6 2 1 1 1 2 3 5 5 6 6 6 5 5 5 5 5 5 5 5 5 5 5 4 3 3 2 2 2 2 2 3 2 2 2 1 1 1 1 2 1 1
6 6 4 5 5 3 1 5 2 2 1 1 1 2 3 4 5 5 6 6 5 6 5 5 5 5 5 5 5 5 4 4 4 3 3 2 2 2 2 2 2 2 2 1 1 1 1 2 1
5 7 6 4 4 3 4 5 1 2 1 1 0 1 2 3 3 4 5 5 6 6 6 5 5 5 5 5 5 4 4 3 2 3 2 2 2 2 2 2 2 2 2 2 1 1 1 1 1
5 6 5 7 6 6 4 3 2 2 1 1 1 2 2 2 3 4 5 5 5 6 6 6 6 5 5 5 4 4 4 4 3 3 3 2 2 2 2 2 2 3 2 2 2 1 1 1 1
4 3 5 6 6 7 5 6 3 2 2 1 1 1 1 2 3 3 4 5 5 5 5 6 6 5 5 4 4 3 3 3 3 3 3 3 2 2 2 3 3 3 3 3 2 2 1 2 1
5 6 6 6 6 7 6 1 2 1 0 1 2 1 2 2 3 3 4 4 4 5 5 5 5 5 5 4 4 4 3 3 3 2 2 2 2 3 3 3 3 3 3 3 3 2 2 2 2
6 7 8 8 7 7 7 2 4 1 0 1 1 1 2 2 3 3 4 4 4 5 5 5 5 5 4 4 5 4 3 3 3 3 3 3 3 2 3 3 3 3 3 3 3 3 3 2 2
Wind_Direction
179 178 224 242 220 105 78 75 75 83 72 60 54 53 52 37 24 58 72 53 39 44 46 56 45 46 48 52 57 58 59 62 65 67 71 71 71 71 71 72 73 75 75 74 76 76 79 83 86
168 196 238 249 241 114 91 88 88 72 89 99 74 63 66 67 56 80 88 65 50 53 52 53 52 53 52 57 63 62 62 65 68 69 71 71 72 70 70 71 74 78 79 76 74 74 78 80 83
147 250 281 278 67 74 94 95 99 97 105 99 84 56 47 64 73 81 78 83 69 62 58 62 52 57 57 60 64 65 65 65 68 70 72 74 73 71 71 73 73 75 79 79 77 75 75 77 81
218 210 204 89 87 73 87 109 121 126 110 79 100 92 78 60 62 82 96 93 78 72 65 68 54 59 60 62 63 65 66 65 66 70 73 75 77 75 75 76 77 77 78 80 79 77 75 77 80
240 244 129 105 91 90 91 98 134 121 99 94 98 95 91 83 86 99 104 91 77 75 73 75 61 57 58 60 61 63 64 63 64 67 73 76 77 75 75 76 78 79 80 80 80 79 78 78 79
214 228 142 111 105 104 107 117 133 103 100 110 105 98 93 106 106 103 103 94 82 77 78 85 85 65 57 56 58 61 62 62 65 67 73 75 77 77 76 77 80 80 80 80 80 81 82 80 79
292 109 107 115 120 115 103 114 111 107 104 93 100 103 113 123 113 116 109 100 91 85 81 80 86 94 90 68 55 57 61 62 63 66 71 74 77 79 80 81 81 82 83 84 81 79 78 76 75
327 150 130 125 128 105 107 116 86 82 91 96 109 100 118 134 136 132 118 112 104 94 83 82 83 73 76 87 71 59 61 64 66 68 70 79 91 91 89 89 81 82 83 84 82 82 80 76 73
244 181 128 120 126 110 128 133 105 103 117 117 95 66 98 131 146 143 133 128 113 97 88 84 82 79 73 69 78 80 80 72 84 89 85 88 81 83 87 72 77 82 86 85 85 84 84 84 79
240 112 91 90 104 114 128 128 132 152 135 131 128 117 129 144 154 149 142 128 119 110 101 92 85 84 87 79 81 64 70 74 65 65 72 70 76 74 80 88 83 85 90 91 88 92 101 96 90
73 84 98 110 114 129 134 122 146 172 131 137 144 144 146 154 154 155 142 116 100 99 101 91 82 84 87 90 77 65 63 72 69 68 74 72 80 93 86 91 99 98 101 93 100 107 78 76 73
109 92 108 112 119 153 145 134 134 209 55 99 131 144 154 158 157 162 154 132 122 111 109 108 92 94 96 91 86 82 79 75 75 71 72 73 74 77 81 80 81 86 85 83 86 82 83 79 80
120 103 100 116 123 145 151 161 149 150 129 131 137 150 161 165 165 164 164 150 148 147 145 115 108 89 89 85 86 99 85 74 81 69 71 75 77 81 83 83 78 78 84 91 83 82 80 76 75
108 117 125 135 139 152 165 175 180 154 154 153 158 163 169 175 173 165 165 162 162 162 137 131 128 108 103 97 94 83 83 85 76 76 76 78 79 83 86 86 80 77 79 80 87 86 84 79 77
143 147 149 152 167 171 204 184 183 167 170 171 174 169 171 178 179 180 177 177 167 158 146 126 127 132 117 96 85 86 89 91 85 83 79 85 83 94 97 88 91 91 96 98 90 89 85 85 85
189 200 180 145 186 185 233 216 124 166 188 189 187 178 180 179 187 181 181 183 172 164 153 136 144 143 124 112 102 94 86 83 84 79 66 75 92 91 88 92 94 93 94 93 93 92 90 89 84
200 204 185 149 182 206 232 253 123 176 199 201 197 193 190 183 188 184 185 188 182 174 163 150 149 145 133 122 117 102 96 89 81 86 76 76 87 97 101 95 103 100 97 94 95 88 88 89 87
196 212 220 223 158 222 234 250 228 193 212 217 206 202 197 195 190 183 184 181 178 176 167 153 147 146 135 138 129 118 103 95 83 82 80 71 84 93 108 114 114 109 107 101 104 102 95 88 92
244 248 265 298 229 254 257 264 265 225 221 227 220 210 202 198 188 179 179 177 176 173 174 164 165 155 151 146 145 135 123 116 101 84 75 84 98 108 112 115 116 113 106 110 114 110 111 111 112
228 244 256 250 210 264 276 273 266 231 228 234 233 217 207 201 187 177 181 180 183 174 178 175 175 166 161 154 158 151 136 123 102 105 101 103 116 122 130 136 127 120 108 116 119 124 126 122 186
234 250 265 280 268 238 273 257 218 202 211 221 229 226 211 202 197 185 186 185 183 182 180 180 183 174 169 163 162 155 147 155 143 135 123 115 123 131 143 139 136 133 140 135 143 153 168 161 170
248 249 257 264 267 265 263 283 216 204 209 212 215 211 208 200 203 195 192 190 188 186 184 186 183 183 174 170 176 173 178 168 158 144 140 150 143 135 147 154 153 145 138 140 152 153 163 204 198
275 262 252 259 265 266 242 267 224 191 215 205 200 205 204 201 200 195 192 190 184 179 183 188 182 183 180 181 182 193 187 165 149 144 151 156 136 140 150 158 156 150 147 149 145 158 198 230 271
225 219 223 235 248 251 246 259 268 175 267 241 191 194 200 198 194 192 182 175 171 165 170 176 179 175 178 186 189 195 184 172 164 165 156 159 147 152 147 152 161 156 154 165 172 188 192 244 264
226 249 242 224 222 244 218 252 267 55 355 303 234 181 177 182 187 183 175 171 168 165 166 172 176 173 178 189 193 193 190 189 184 178 170 178 166 167 158 161 172 153 161 166 174 190 201 218 234
232 250 267 280 275 268 214 242 103 82 17 317 288 140 138 160 175 173 171 169 168 168 171 174 177 176 180 189 193 195 187 198 189 189 185 187 180 173 167 173 174 163 167 170 182 215 196 211 201
232 235 273 282 282 273 235 223 191 158 174 107 100 128 148 155 162 170 166 165 166 169 175 180 179 179 180 184 188 190 191 198 195 196 198 194 186 173 178 176 173 174 173 180 189 209 206 210 226
268 251 231 247 266 262 249 239 235 182 190 190 198 172 159 154 154 158 164 167 165 166 171 176 179 180 180 182 180 176 186 193 200 204 204 206 196 182 181 180 178 180 184 187 185 203 221 215 191
210 218 236 248 263 275 270 237 54 353 205 226 222 194 154 160 154 154 160 165 166 163 165 173 174 178 179 180 174 173 177 189 191 193 196 208 201 193 196 192 194 192 192 187 180 206 204 222 215
252 248 240 251 247 253 274 271 110 133 311 280 253 170 155 150 148 149 154 160 164 167 171 173 175 175 176 180 176 176 177 183 189 190 199 198 191 197 207 201 198 195 200 204 199 199 205 217 229